Regional Weather Roundup
Issued by NWS

Home | Current Version | Previous Version | Graphics & Text | Print | Product List | Glossary On
Versions: 1 2 3 4 5 6 7 8 9 10 11 12 13 14 15 16 17 18 19 20 21 22 23 24 25 26 27 28 29 30 31 32 33 34 35 36 37 38 39 40 41 42 43 44 45 46 47 48 49 50
000
ASUS45 KTFX 241710
RWRMT
MONTANA REGIONAL WEATHER ROUNDUP
NATIONAL WEATHER SERVICE GREAT FALLS MT
1000 AM MST FRI FEB 24 2017

NOTE: "FAIR" INDICATES FEW OR NO CLOUDS BELOW 12000 FEET WITH NO
SIGNIFICANT WEATHER AND/OR OBSTRUCTIONS TO VISIBILITY.

MTZ001>007-043-241800-
WEST OF THE DIVIDE

CITY           SKY/WX    TMP DP  RH WIND       PRES   REMARKS
KALISPELL      MOSUNNY   16  13  88 CALM      30.09R
MISSOULA       PTSUNNY   28  15  58 NW14      30.08R WCI  17
BUTTE          CLOUDY    16  12  84 SE3       29.93S
MULLAN PASS    SUNNY     16  13  88 VRB3      29.93S
ANACONDA         N/A     21  16  79 CALM      29.97R
DEER LODGE       N/A     23  18  80 CALM      30.00S
EUREKA           N/A     18  14  86 CALM      30.14R
HAMILTON         N/A     27  16  63 NW8       30.05R WCI  18
LIBBY            N/A     18  12  79 CALM      30.13S
RONAN            N/A     25  22  88 CALM      30.10R
$$

MTZ008-052>055-241800-
SOUTHWEST MONTANA

CITY           SKY/WX    TMP DP  RH WIND       PRES   REMARKS
BOZEMAN        LGT SNOW  24  19  81 S5        29.97R
DILLON         LGT SNOW  21  17  84 SW6       29.93R FOG     WCI  13
W YELLOWSTONE  CLOUDY    16   9  73 SW10      29.88R WCI   3
ENNIS          MOSUNNY   19  16  86 S5        29.97S HAZE
THREE FORKS      N/A     24   2  38 CALM      29.97R
$$

MTZ009-010-012-014-046-048-049-054-241800-
EAST SLOPES AND CENTRAL MONTANA

CITY           SKY/WX    TMP DP  RH WIND       PRES   REMARKS
CUT BANK       PTSUNNY   21  15  78 NW9       30.01R WCI  11
GREAT FALLS    MOSUNNY   27  19  72 W5        30.00R
MALMSTROM AFB  FLURRIES  26  23  89 S3        30.02S
HELENA         CLOUDY    30  18  60 NW8       29.99R WCI  22
AUGUSTA          N/A     25  17  73 W7        29.96S WCI  17
BOWMANS CRNR     N/A     23  17  77 W6        29.96R WCI  16
CHOTEAU          N/A     25  16  68 CALM      30.01S
POWER          PTSUNNY   24  20  84 S3        30.00R
RAYNESFORD     CLOUDY    24  17  74 W5        29.99R
ULM            PTSUNNY   26  22  84 MISG      30.01R
$$

MTZ011-013-016-021-045-047-050-051-241800-
NORTH CENTRAL MONTANA

CITY           SKY/WX    TMP DP  RH WIND       PRES   REMARKS
HAVRE          LGT SNOW  23  23 100 CALM      30.06S FOG
LEWISTOWN      CLOUDY    22  19  89 W3        29.98R
N BAR RANCH    CLOUDY    21  19  93 E5        29.98S FOG
CHINOOK          N/A    N/A N/A N/A E3        30.07R
DENTON           N/A     25  20  80 SW7       29.97S WCI  17
FORT BENTON      N/A     28  21  74 MISG      30.06R
GEYSER         PTSUNNY   26  19  74 W6        29.97S WCI  19
GRASS RANGE    PTSUNNY   23  23  97 W3        29.96R
JUDITH GAP     FLURRIES  21  19  93 SW10      29.95S WCI   9
ROY            PTSUNNY   25  25  99 MISG      29.98S
STANFORD       SNOWSHWR  22  19  87 CALM      29.96S FOG
WINIFRED         N/A     22  21  96 S5        29.99S
$$

MTZ017>020-022>027-061-062-241800-
NORTHEAST MONTANA

CITY           SKY/WX    TMP DP  RH WIND       PRES   REMARKS
GLASGOW        CLOUDY    27  23  85 SE10      30.09S WCI  17
JORDAN           N/A     27  22  81 SE9       30.06F WCI  18
SIDNEY         CLOUDY    26  18  71 S10       30.16S WCI  16
WOLF POINT     CLOUDY    28  21  75 S5        30.13F
PLENTYWOOD       N/A     27  16  63 S8        30.12F WCI  18
$$

MTZ028>42-056>058-241800-
SOUTHCENTRAL AND SOUTHEAST MONTANA

CITY           SKY/WX    TMP DP  RH WIND       PRES   REMARKS
BAKER          SUNNY     21  11  65 SE16G23   30.10S WCI   7
BILLINGS       LGT SNOW  26  24  92 NE7       29.99R FOG     WCI  18
LIVINGSTON     FLURRIES  21  17  84 SW3       29.95S
MILES CITY     CLOUDY    26  18  71 SE8       30.09R WCI  18
BIG TIMBER     PTSUNNY   23  19  86 SW5       29.99S
FORSYTH          N/A     27  23  86 E8        30.06S WCI  18
HARLOWTON      FLURRIES  22  19  87 NW3       29.97S
LAUREL           N/A     27  20  75 CALM      29.97R
ROUNDUP          N/A     26  20  78 NE2       29.92S
$$

REGIONAL REPORTS...DAKOTAS

CITY           SKY/WX    TMP DP  RH WIND       PRES   REMARKS
WILLISTON      CLOUDY    23  17  78 SW3       30.16S
MINOT          SUNNY     25  11  55 N3        30.14S
DICKINSON      CLOUDY    19  15  84 NW5       30.11R
BEACH            N/A    N/A N/A N/A MISG        N/A
CROSBY           N/A     28  16  59 SW12      30.15S WCI  18
TIOGA            N/A     23  16  74 W9        30.15R WCI  13
WATFORD CITY   CLOUDY    19  18  93 SW6       30.16S WCI  11
BISMARCK       SUNNY     27  16  63 N9        30.15S WCI  18
GRAND FORKS    FLURRIES  19   6  57 N10       30.15S WCI   7
FARGO          SUNNY     23  13  65 N16       30.11S WCI  10
BUFFALO SD       N/A     21  13  71 S7        30.03R WCI  12
RAPID CITY     CLOUDY    19  14  81 E3        30.09R
$$

REGIONAL REPORTS...WYOMING/IDAHO/WASHINGTON

CITY           SKY/WX    TMP DP  RH WIND       PRES   REMARKS
GILLETTE       CLOUDY    23  18  81 S6        29.98R HAZE    WCI  16
SHERIDAN       CLOUDY    24  17  74 SE13      29.97S WCI  12
BUFFALO WY     CLOUDY    22  17  81 S10       29.94R HAZE    WCI  11
CODY           CLOUDY    23  15  71 S6        29.93S WCI  16
YELLOWSTONE LA   N/A      9   5  84 CALM      29.85R
IDAHO FALLS    LGT SNOW  19  18  95 S24       29.97R VSB 1   WCI   2
SALMON         PTSUNNY   27  18  69 CALM      29.98S
BOISE          MOSUNNY   28  18  66 N8        30.12R WCI  20
SPOKANE        FLURRIES  23  20  88 E3        30.14R
$$

REGIONAL REPORTS...ALBERTA

CITY           SKY/WX    TMP DP  RH WIND       PRES   REMARKS
EDMONTON       CLOUDY    14   9  79 N14       30.19R WCI  -1
CALGARY        LGT SNOW  21  18  86 N13       30.04R VSB 1   WCI   9
LETHBRIDGE     CLOUDY    18  16  93 W12       30.05R WCI   5
MEDICINE HAT   LGT SNOW  25  23  93 CALM      30.07S FOG
WATERTON GATE    N/A     18   9  68 N3          N/A
CARDSTON         N/A     18   7  62 SW7         N/A  WCI   8
MILK RIVER       N/A     21  14  73 W10         N/A  WCI  10
$$

REGIONAL REPORTS...SASKATCHEWAN

CITY           SKY/WX    TMP DP  RH WIND       PRES   REMARKS
SWIFT CURRENT  CLOUDY    25  21  86 W9        30.03S WCI  15
REGINA         PTSUNNY   27  18  69 W7        30.11S WCI  19
SASKATOON      PTSUNNY   23  18  80 VRB2      30.12R
CYPRESS HILLS    N/A     21  18  86 NW3         N/A
VAL MARIE        N/A     27  23  86 S9          N/A  WCI  17
ASSINIBOIA       N/A     18  12  79 N13         N/A  WCI   4
$$



USA.gov is the U.S. government's official web portal to all federal, state and local government web resources and services.